Regional Weather Roundup
Issued by NWS Bismarck, ND

Home | Current Version | Previous Version | Text Only | Print | Product List | Glossary On
Versions: 1 2 3 4 5 6 7 8 9 10 11 12 13 14 15 16 17 18 19 20 21 22 23 24 25 26 27 28 29 30 31 32 33 34 35 36 37 38 39 40 41 42 43 44 45 46 47 48 49 50
000
ASUS43 KBIS 060010
RWRBIS

NWR BROADCAST TEXT
NATIONAL WEATHER SERVICE BISMARCK ND
600 PM CST MON DEC 05 2016

NOTE: "FAIR" INDICATES FEW OR NO CLOUDS BELOW 12,000 FEET WITH NO
SIGNIFICANT WEATHER AND/OR OBSTRUCTIONS TO VISIBILITY.


CITY           SKY/WX    TMP DP  RH WIND       PRES   REMARKS
WILLISTON      SNOW      12   7  80 NW32G46   29.83R VSB 1/2 WCI -10
MINOT          CLOUDY    22  20  92 W21       29.63R FOG     WCI   6
MINOT AFB      LGT SNOW  21  19  91 NW22      29.62R VSB 1   WCI   5
BISMARCK       CLOUDY    19  16  88 NW28G38   29.68R BLWGSNOWWCI   1
DICKINSON      LGT SNOW   9   5  84 NW32G41   29.76R VSB 3/4 WCI -14
GARRISON         N/A     17  13  84 NW32G40   29.66R WCI  -3
HETTINGER ARPT LGT SNOW  10   5  80 NW29G43   29.79R WCI -12
JAMESTOWN      SNOW      27  25  92 NW14      29.53F VSB 1/2 WCI  16
BEACH          LGT SNOW   7   5  92 NW29G41   29.89R VSB 3/4 WCI -16
CARRINGTON     SNOW      27  27 100 CALM      29.59R VSB 1/2
HAZEN          FLURRIES  16  10  79 W21G30    29.75R WCI  -2
RUGBY          LGT SNOW  23  23 100 W5        29.61R WCI  17
STANLEY        SNOW      14  14 100 NW26G35   29.70R VSB 1/2 WCI  -6
TIOGA          HVY SNOW  14  14 100 NW31G43   29.75R VSB 1/4 WCI  -7
WATFORD CITY   LGT SNOW  10   7  85 NW24G33   29.81R WCI -10
$$

CITY           SKY/WX    TMP DP  RH WIND       PRES   REMARKS
GRAND FORKS    CLOUDY    31  27  85 NE14      29.58F
GRAND FORKS AF CLOUDY    30  27  91 NE14      29.57F WCI  19
DEVILS LAKE    LGT SNOW  26  25  96 N13       29.58F FOG     WCI  15
FARGO          CLOUDY    34  30  85 E7        29.50F
CANDO          LGT SNOW  27  27 100 NE10      29.62F WCI  17
CAVALIER         N/A     30  28  93 NE8       29.65F
GRAFTON        CLOUDY    30  30 100 NE12G17   29.64S
GWINNER        CLOUDY    34  34 100 CALM      29.47F
LANGDON          N/A     27  27 100 N5        29.62R FOG
ROLLA          LGT SNOW  25  25 100 E7        29.62R WCI  17
WALHALLA         N/A     28  28 100 NE8       29.67S
$$

CITY           SKY/WX    TMP DP  RH WIND       PRES   REMARKS
ABERDEEN       FLURRIES  32  27  81 W26G33    29.56R WCI  18
MOBRIDGE       BLWGSNOW  22  16  78 NW33G45   29.67R VSB 3/4 WCI   3
BUFFALO          N/A     12   5  73 NW31G38   29.75R WCI -10
RAPID CITY     PTCLDY    21  13  71 NW23      29.82R WCI   5
GLASGOW        MOCLDY     6  -2  69 W22G33    30.03R WCI -15
SIDNEY         LGT SNOW  10   5  80 NW35G40   29.88R WCI -13
WOLF POINT     CLOUDY    11   1  64 NW29G36   30.00R WCI -11
GLENDIVE       FLURRIES   8   2  76 NW28G37   29.93R WCI -14
MILES CITY     CLOUDY    13   2  61 NW22G29   30.00R WCI  -6
BAKER          LGT SNOW   9   4  80 NW29G41   29.88R VSB 1   WCI -13
$$

CITY           SKY/WX    TMP DP  RH WIND       PRES   REMARKS
BILLINGS       MOCLDY    19   4  51 W7        29.97S WCI  10
GREAT FALLS    LGT SNOW   9   5  84 N9        30.06S WCI  -4
REGINA         LGT SNOW  14  10  85 NW17G25   29.89R BLWGSNOWWCI  -3
ESTEVAN        SNOW      16  14  93 NW28G35   29.76R VSB 1/2 WCI  -4
$$





USA.gov is the U.S. government's official web portal to all federal, state and local government web resources and services.